User: anonymous   Login
Location: Unspecified
(0.0000°N, 0.0000°E)
Time: 19:52:56
(UTC+00:00)
Language:

NOAA 19 - Orbit

View from above orbital plane
View from above orbital plane
View from above satellite
View from above satellite

Ground track
Ground track

The orbit data is extracted from the following two-line orbital elements,

1 33591U 09005A   18115.50118113  .00000120  00000-0  90411-4 0  9993
2 33591  99.1379  92.4946 0014937 113.0481 247.2267 14.12272573474747
Epoch (UTC): 25 April 2018 12:01:42
Eccentricity: 0.0014937
inclination: 99.1379°
perigee height: 841 km
apogee height: 862 km
right ascension of ascending node: 92.4946°
argument of perigee: 113.0481°
revolutions per day: 14.12272573
mean anomaly at epoch: 247.2267°
orbit number at epoch: 47474

The dashed part of the orbit path shows where the satellite is in the earth's shadow,  

DLR